User: anonymous   Login
Location: Carnières
(50.1682°N, 3.3474°E)
Time: 16:43:19
(UTC+00:00)
Language:

Cosmos 1850 Rocket - Orbit

View from above orbital plane
View from above orbital plane
View from above satellite
View from above satellite

Ground track
Ground track

The orbit data is extracted from the following two-line orbital elements,

1 18096U 87049B   24195.92184512  .00000655  00000-0  22775-3 0  9997
2 18096  74.0409 159.3548 0020422  54.2346 306.0703 14.37287289942712
Epoch (UTC): 13 July 2024 22:07:27
Eccentricity: 0.0020422
inclination: 74.0409°
perigee height: 753 km
apogee height: 782 km
right ascension of ascending node: 159.3548°
argument of perigee: 54.2346°
revolutions per day: 14.37287289
mean anomaly at epoch: 306.0703°
orbit number at epoch: 94271

The dashed part of the orbit path shows where the satellite is in the earth's shadow,  

DLR